Lid_Strength_Index
1 0 0 -0 -0 -0 -0 -1 -1 8 10 11 8 8 8 8 8 8 9 9 8 9 11 14 13 13 16 15
1 1 0 0 0 0 -1 -1 1 9 12 8 8 8 8 8 8 9 9 9 8 10 11 11 12 14 15 17
1 1 1 0 -0 -0 1 1 9 11 13 6 9 9 9 9 8 9 9 8 10 12 13 14 16 16 19 17
2 1 1 1 1 4 6 8 8 12 10 11 9 9 10 8 9 10 10 12 13 16 17 17 19 19 19 18
2 2 5 7 11 11 10 12 12 12 11 9 9 10 10 10 10 12 15 14 16 19 18 18 17 18 18 19
2 4 7 10 12 10 12 11 11 11 10 11 11 10 9 12 13 16 15 16 19 17 15 15 16 17 19 20
3 6 8 8 6 9 12 11 11 11 11 10 13 12 11 13 15 16 17 18 17 15 15 17 18 18 19 20
6 8 8 7 6 9 15 13 12 10 10 10 13 11 11 12 14 16 17 17 16 16 17 18 18 20 17 18
7 8 7 6 6 8 19 12 12 9 10 12 12 11 11 12 16 17 16 19 17 18 18 18 17 18 17 18
7 7 6 7 7 13 19 14 12 12 12 12 13 12 13 13 13 15 16 17 16 17 18 16 17 17 18 17
9 7 7 8 13 16 13 15 14 13 14 14 14 15 16 18 18 18 19 17 18 16 16 19 17 19 21 22
8 7 8 11 16 15 15 13 13 14 15 15 16 16 17 19 17 19 20 20 19 18 16 20 22 21 22 23
8 8 10 15 14 15 13 14 14 15 16 15 15 17 19 19 18 18 20 21 20 17 17 18 20 21 23 21
8 9 11 13 14 13 13 13 16 15 17 17 17 17 18 18 17 16 18 20 21 19 17 18 18 20 20 23
9 10 14 15 13 13 13 14 15 15 16 17 17 19 18 17 16 16 18 20 20 20 19 21 23 21 23 23
12 16 15 14 11 14 14 14 14 14 15 16 17 18 18 18 16 16 19 19 20 22 22 20 19 21 23 24
14 17 16 15 14 14 15 14 15 14 14 16 18 18 18 15 16 18 19 18 21 22 22 21 20 22 21 22